[[{"header":{"parameterUnit":"m.s-1","parameterCategory":1,"la1":30.2991,"la2":30.254,"lo1":-89.0895,"lo2":-89.0444,"dy":0.0017,"dx":0.0017,"nx":28,"ny":28,"refTime":"2025-11-14T09:00:00:Z","depth":0,"parameterNumber":2,"parameterNumberName":"U-component_of_WINDS"},"data":[0,0,0,0,0,0,0,0,0,0,0,0,0,0,0,0,0,0,0,0,0,0,0,0,0,0,0,0,0,0,0,0,0,0,0,0,0,0,0,0,0,0,0,0,0,0,0,0,0,0,0,0,0,0,0,0,0,0,-0.1862,-0.1862,0,-0.1891,-0.1891,-0.1891,-0.1885,-0.1885,-0.1884,-0.1884,-0.1916,-0.1917,-0.1919,0,0,0,0,0,0,0,0,0,0,0,0,0,-0.1803,-0.1804,-0.1862,-0.1862,-0.1862,-0.189,-0.1891,-0.1891,-0.1886,-0.1885,-0.1884,-0.1884,-0.1915,-0.1917,-0.1919,0,0,0,0,0,0,0,0,0,0,0,0,0,-0.183,-0.1804,-0.1862,-0.1863,-0.1863,-0.189,-0.1891,-0.1891,-0.1886,-0.1885,-0.1884,-0.1883,-0.1915,-0.1917,-0.1919,-0.1947,0,0,-0.1925,-0.1926,0,0,0,0,0,0,0,0,-0.1828,-0.1832,-0.1862,-0.1863,-0.1863,-0.1883,-0.1882,-0.191,-0.1886,-0.1877,-0.1884,-0.1883,-0.1906,-0.1909,-0.1916,-0.1949,-0.195,-0.1925,-0.1927,-0.1927,-0.1928,0,0,0,0,0,0,0,-0.1827,-0.1831,-0.1873,-0.1863,-0.1863,-0.1862,-0.1865,-0.1887,-0.1896,-0.1878,-0.1878,-0.1881,-0.1906,-0.1914,-0.1917,-0.1951,-0.1925,-0.1927,-0.1928,-0.1929,-0.2008,-0.2009,0,0,0,0,0,0,-0.1824,-0.1829,-0.1872,-0.1874,-0.1843,-0.1864,-0.1867,-0.1878,-0.1896,-0.1897,-0.1882,-0.1881,-0.1911,-0.1914,-0.1918,-0.1952,-0.1927,-0.1929,-0.193,-0.2007,-0.2008,-0.2009,0,0,0,0,0,0,-0.1823,-0.1828,-0.1871,-0.1852,-0.1857,-0.1866,-0.1878,-0.1879,-0.1887,-0.1898,-0.19,-0.1888,-0.191,-0.1915,-0.194,-0.1953,-0.193,-0.1932,-0.2006,-0.2007,-0.2008,-0.2021,0,0,0,0,0,0,-0.1821,-0.1827,-0.1838,-0.1852,-0.1858,-0.1892,-0.1879,-0.188,-0.189,-0.1889,-0.1905,-0.1907,-0.191,-0.1937,-0.1942,-0.1955,-0.1934,-0.2005,-0.2006,-0.2008,-0.2019,-0.2022,-0.2025,0,0,0,0,0,-0.1819,-0.1841,-0.1839,-0.1844,-0.1871,-0.1893,-0.1897,-0.19,-0.1891,-0.1902,-0.1909,-0.1906,-0.195,-0.1939,-0.1945,-0.1959,-0.2004,-0.2006,-0.2008,-0.2018,-0.2022,-0.2025,0,0,0,0,0,0,-0.183,-0.1843,-0.184,-0.1868,-0.1879,-0.1892,-0.1906,-0.1904,-0.1918,-0.1917,-0.1921,-0.1924,-0.1949,-0.1957,-0.1944,-0.1987,-0.1976,-0.1979,-0.1982,-0.1985,-0.1988,-0.1986,-0.1935,0,0,0,0,0,-0.1835,-0.1851,-0.1862,-0.1885,-0.189,-0.1897,-0.1907,-0.1908,-0.192,-0.1925,-0.1934,-0.1947,-0.1964,-0.1975,-0.1991,-0.202,-0.2023,-0.2032,-0.2035,-0.2038,-0.2041,-0.2056,-0.206,-0.2015,-0.2015,-0.2015,0,0,-0.1847,-0.1856,-0.1866,-0.1887,-0.1896,-0.1913,-0.1901,-0.192,-0.1932,-0.1928,-0.1952,-0.1959,-0.1974,-0.2,-0.2013,-0.2007,-0.2053,-0.204,-0.2042,-0.2044,-0.2058,-0.2063,-0.2066,-0.2017,-0.2016,-0.2016,0,0,-0.1877,-0.1885,-0.1905,-0.1914,-0.1927,-0.1931,-0.1936,-0.1949,-0.1953,-0.1977,-0.1974,-0.1989,-0.2018,-0.2028,-0.2037,-0.2069,-0.2067,-0.2074,-0.209,-0.2104,-0.2108,-0.2111,-0.2123,-0.2127,-0.2077,-0.2077,-0.2077,0,-0.189,-0.1915,-0.1916,-0.1934,-0.1943,-0.1939,-0.1959,-0.1968,-0.1986,-0.1993,-0.1986,-0.2022,-0.2031,-0.206,-0.2068,-0.2075,-0.2081,-0.2073,-0.2107,-0.211,-0.2113,-0.2124,-0.2129,-0.2078,-0.2078,-0.2078,-0.2077,0,-0.193,-0.1947,-0.1961,-0.1978,-0.1989,-0.2008,-0.2012,-0.2023,-0.2023,-0.2027,-0.2051,-0.2062,-0.208,-0.2087,-0.2087,-0.2116,-0.2112,-0.2106,-0.2095,-0.2118,-0.2129,-0.2133,-0.2079,-0.2079,-0.2078,-0.2078,0,0,-0.1969,-0.1985,-0.199,-0.1997,-0.2011,-0.2024,-0.2043,-0.2059,-0.2069,-0.2081,-0.2097,-0.2121,-0.2115,-0.2125,-0.2127,-0.214,-0.2164,-0.2132,-0.2133,-0.2138,-0.2196,-0.22,-0.2205,-0.2162,-0.2163,-0.2164,-0.2195,0,-0.2,-0.2033,-0.2034,-0.2064,-0.2079,-0.2075,-0.2091,-0.2101,-0.2106,-0.212,-0.2125,-0.2142,-0.2133,-0.2139,-0.2152,-0.2159,-0.2176,-0.2156,-0.2178,-0.2179,-0.2175,-0.2211,-0.2216,-0.2245,-0.2199,-0.22,-0.22,0,-0.2042,-0.2054,-0.2085,-0.2096,-0.2102,-0.2117,-0.2132,-0.2145,-0.2157,-0.2159,-0.2169,-0.2169,-0.2188,-0.2175,-0.2202,-0.2188,-0.2197,-0.2201,-0.2203,-0.2205,-0.2191,-0.2215,-0.2254,-0.2259,-0.2207,-0.2206,-0.2206,0,-0.2067,-0.2092,-0.2113,-0.212,-0.2133,-0.2143,-0.2149,-0.2159,-0.2169,-0.2182,-0.2188,-0.2203,-0.2212,-0.2224,-0.2227,-0.2217,-0.2254,-0.2241,-0.2256,-0.2256,-0.2265,-0.2265,-0.2307,-0.227,-0.227,-0.227,-0.227,0,-0.2103,-0.2122,-0.2125,-0.2138,-0.216,-0.216,-0.2182,-0.2187,-0.2196,-0.221,-0.2207,-0.2221,-0.2224,-0.2239,-0.2241,-0.2263,-0.2267,-0.227,-0.227,-0.227,-0.227,-0.2277,-0.2275,-0.2271,-0.2271,-0.227,-0.227,0,-0.2135,-0.2138,-0.2161,-0.2171,-0.2174,-0.2189,-0.2197,-0.221,-0.2214,-0.2232,-0.2237,-0.2243,-0.2259,-0.2263,-0.2284,-0.2285,-0.2311,-0.2309,-0.2307,-0.2307,-0.2322,-0.2321,-0.237,-0.2377,-0.2335,-0.2335,-0.2336,0,-0.2158,-0.2173,-0.2183,-0.2192,-0.2198,-0.2213,-0.2222,-0.2223,-0.2233,-0.2246,-0.2258,-0.2274,-0.2287,-0.2314,-0.232,-0.2335,-0.2334,-0.2351,-0.2337,-0.2336,-0.2335,-0.2334,-0.2336,-0.2354,-0.2354,-0.2354,-0.2355,0,-0.2198,-0.2198,-0.2211,-0.2225,-0.2236,-0.2246,-0.2257,-0.2264,-0.2267,-0.2278,-0.2294,-0.2304,-0.2324,-0.234,-0.2355,-0.2361,-0.2359,-0.2359,-0.2363,-0.2364,-0.2362,-0.2363,-0.2314,-0.2358,-0.2358,-0.2357,-0.2357,-0.2357,-0.2227,-0.2239,-0.2248,-0.2263,-0.227,-0.2279,-0.2292,-0.2296,-0.231,-0.2325,-0.2325,-0.2343,-0.2353,-0.2373,-0.238,-0.2394,-0.2389,-0.2396,-0.2397,-0.2399,-0.24,-0.2359,-0.2397,-0.2397,-0.2397,-0.2397,-0.2397,0,-0.2267,-0.2272,-0.2285,-0.2299,-0.231,-0.2305,-0.2316,-0.2326,-0.2341,-0.2351,-0.2363,-0.2382,-0.2397,-0.2404,-0.2419,-0.2429,-0.2428,-0.2433,-0.2432,-0.2434,-0.2404,-0.2399,-0.2433,-0.2433,-0.2433,-0.2433,-0.2433,-0.2433,-0.2289,-0.231,-0.2311,-0.2335,-0.234,-0.2357,-0.2363,-0.2372,-0.2379,-0.24,-0.2412,-0.2416,-0.2424,-0.2439,-0.2453,-0.2455,-0.2461,-0.2466,-0.2467,-0.244,-0.2436,-0.2432,-0.2427,-0.2467,-0.2467,-0.2496,-0.2496,-0.2496]},{"header":{"parameterUnit":"m.s-1","parameterCategory":1,"la1":30.2991,"la2":30.254,"lo1":-89.0895,"lo2":-89.0444,"dy":0.0017,"dx":0.0017,"nx":28,"ny":28,"refTime":"2025-11-14T09:00:00:Z","depth":0,"parameterNumber":3,"parameterNumberName":"V-component_of_WINDS"},"data":[0,0,0,0,0,0,0,0,0,0,0,0,0,0,0,0,0,0,0,0,0,0,0,0,0,0,0,0,0,0,0,0,0,0,0,0,0,0,0,0,0,0,0,0,0,0,0,0,0,0,0,0,0,0,0,0,0,0,-1.3561,-1.3562,0,-1.3637,-1.3637,-1.3638,-1.3638,-1.3637,-1.3636,-1.3635,-1.3712,-1.3715,-1.3718,0,0,0,0,0,0,0,0,0,0,0,0,0,-1.3418,-1.342,-1.3561,-1.3562,-1.3563,-1.3636,-1.3638,-1.3639,-1.3638,-1.3637,-1.3636,-1.3634,-1.3711,-1.3715,-1.3718,0,0,0,0,0,0,0,0,0,0,0,0,0,-1.3485,-1.3421,-1.3561,-1.3572,-1.3573,-1.3636,-1.3638,-1.3639,-1.3638,-1.3637,-1.3635,-1.3634,-1.371,-1.3714,-1.3719,-1.3776,0,0,-1.3732,-1.3734,0,0,0,0,0,0,0,0,-1.3481,-1.349,-1.3569,-1.3571,-1.3573,-1.3626,-1.3615,-1.3685,-1.3639,-1.3614,-1.3635,-1.3633,-1.3685,-1.3691,-1.3709,-1.378,-1.3783,-1.3733,-1.3735,-1.3737,-1.3739,0,0,0,0,0,0,0,-1.3477,-1.3487,-1.3591,-1.357,-1.3573,-1.3573,-1.3581,-1.3628,-1.3657,-1.3616,-1.3616,-1.3625,-1.3685,-1.3704,-1.371,-1.3784,-1.3733,-1.3736,-1.3739,-1.3741,-1.3907,-1.3909,0,0,0,0,0,0,-1.347,-1.3483,-1.3589,-1.3593,-1.3523,-1.3577,-1.3586,-1.3611,-1.3656,-1.3662,-1.3626,-1.3624,-1.3697,-1.3705,-1.3713,-1.3784,-1.3737,-1.3741,-1.3744,-1.3906,-1.3908,-1.391,0,0,0,0,0,0,-1.3467,-1.3479,-1.3586,-1.3538,-1.3552,-1.3581,-1.3609,-1.3613,-1.3632,-1.3664,-1.3669,-1.364,-1.3696,-1.3707,-1.3761,-1.3787,-1.3743,-1.3748,-1.3904,-1.3906,-1.3909,-1.3926,0,0,0,0,0,0,-1.3463,-1.3478,-1.35,-1.3539,-1.3555,-1.3632,-1.3611,-1.3616,-1.3639,-1.3638,-1.3678,-1.3683,-1.3696,-1.3754,-1.3765,-1.3792,-1.3751,-1.3901,-1.3905,-1.3908,-1.3923,-1.3929,-1.3934,0,0,0,0,0,-1.3457,-1.3501,-1.3501,-1.3514,-1.3582,-1.3633,-1.3642,-1.3656,-1.3641,-1.3664,-1.3685,-1.3682,-1.3782,-1.376,-1.3772,-1.3801,-1.39,-1.3904,-1.3908,-1.3921,-1.3928,-1.3934,0,0,0,0,0,0,-1.3464,-1.3507,-1.3507,-1.3565,-1.3595,-1.3633,-1.3662,-1.3663,-1.3698,-1.3695,-1.3711,-1.372,-1.3774,-1.3793,-1.3767,-1.3859,-1.3839,-1.3846,-1.3845,-1.3852,-1.3857,-1.3852,-1.3755,0,0,0,0,0,-1.3473,-1.351,-1.3545,-1.3593,-1.3609,-1.3633,-1.3655,-1.3663,-1.3696,-1.3709,-1.3733,-1.3765,-1.3804,-1.3829,-1.3866,-1.3926,-1.3935,-1.3952,-1.3957,-1.3962,-1.3967,-1.4001,-1.401,-1.3923,-1.3923,-1.3922,0,0,-1.349,-1.3518,-1.3541,-1.3595,-1.362,-1.3659,-1.3643,-1.3685,-1.3714,-1.3715,-1.3768,-1.3787,-1.3824,-1.3881,-1.3908,-1.3898,-1.3993,-1.3967,-1.397,-1.3973,-1.4006,-1.4015,-1.4022,-1.3925,-1.3925,-1.3924,0,0,-1.3542,-1.3567,-1.361,-1.3635,-1.3673,-1.3689,-1.3699,-1.3737,-1.375,-1.3803,-1.3805,-1.384,-1.3906,-1.3932,-1.3954,-1.4018,-1.4017,-1.4029,-1.4057,-1.409,-1.4097,-1.4103,-1.4127,-1.4135,-1.4035,-1.4035,-1.4035,0,-1.3559,-1.3618,-1.3632,-1.3674,-1.3698,-1.3701,-1.3745,-1.3769,-1.3817,-1.3834,-1.3823,-1.3907,-1.3932,-1.3996,-1.4012,-1.4029,-1.4042,-1.4025,-1.4095,-1.4101,-1.4107,-1.413,-1.4138,-1.4036,-1.4036,-1.4036,-1.4036,0,-1.3637,-1.3678,-1.3708,-1.3755,-1.3783,-1.3826,-1.3847,-1.3873,-1.3879,-1.3896,-1.3951,-1.3981,-1.4025,-1.4041,-1.4046,-1.4106,-1.4099,-1.4092,-1.4072,-1.4117,-1.4138,-1.4147,-1.4038,-1.4038,-1.4037,-1.4037,0,0,-1.3695,-1.375,-1.3761,-1.3783,-1.3825,-1.3857,-1.3901,-1.3944,-1.3967,-1.4,-1.4037,-1.4094,-1.4087,-1.4112,-1.4121,-1.415,-1.42,-1.4139,-1.414,-1.415,-1.4269,-1.4275,-1.4284,-1.42,-1.4201,-1.4203,-1.4266,0,-1.3752,-1.3829,-1.3844,-1.3911,-1.3949,-1.3953,-1.3991,-1.4022,-1.4039,-1.4075,-1.4094,-1.4134,-1.4122,-1.4137,-1.4166,-1.4188,-1.4224,-1.4183,-1.4235,-1.4237,-1.4226,-1.4295,-1.4302,-1.436,-1.4274,-1.4276,-1.4277,0,-1.3828,-1.3864,-1.3936,-1.3974,-1.3991,-1.4025,-1.4066,-1.41,-1.4135,-1.4146,-1.4174,-1.418,-1.4226,-1.4204,-1.4268,-1.424,-1.4263,-1.4276,-1.4279,-1.4285,-1.4259,-1.4303,-1.4378,-1.4387,-1.429,-1.4289,-1.4288,0,-1.3864,-1.3931,-1.3982,-1.4001,-1.4047,-1.4071,-1.4091,-1.4125,-1.415,-1.4186,-1.4203,-1.4244,-1.4267,-1.4299,-1.4316,-1.4298,-1.4379,-1.4358,-1.439,-1.4389,-1.4407,-1.4405,-1.4487,-1.442,-1.442,-1.442,-1.442,0,-1.3927,-1.397,-1.3999,-1.4031,-1.408,-1.4097,-1.4145,-1.4165,-1.4195,-1.4232,-1.4237,-1.4271,-1.4291,-1.4328,-1.4342,-1.4394,-1.4404,-1.4414,-1.4417,-1.4414,-1.4413,-1.4429,-1.4425,-1.4422,-1.4422,-1.4421,-1.4421,0,-1.3975,-1.3996,-1.4053,-1.4092,-1.4103,-1.4138,-1.4172,-1.4203,-1.4221,-1.4266,-1.4278,-1.4306,-1.435,-1.437,-1.4425,-1.4434,-1.4493,-1.4493,-1.4481,-1.4482,-1.4513,-1.451,-1.4608,-1.4622,-1.4545,-1.4546,-1.4547,0,-1.4013,-1.4047,-1.4091,-1.4115,-1.4136,-1.4176,-1.4202,-1.422,-1.4247,-1.4291,-1.4317,-1.4361,-1.4398,-1.4468,-1.4493,-1.4535,-1.4536,-1.4568,-1.4543,-1.4539,-1.4538,-1.4536,-1.454,-1.4572,-1.4573,-1.4574,-1.4574,0,-1.408,-1.4089,-1.4126,-1.4168,-1.42,-1.4233,-1.4266,-1.4286,-1.4309,-1.434,-1.4385,-1.4413,-1.4469,-1.4513,-1.4557,-1.4578,-1.4581,-1.4582,-1.4592,-1.4589,-1.4581,-1.4586,-1.4494,-1.458,-1.4579,-1.4579,-1.4578,-1.4578,-1.4125,-1.4156,-1.4191,-1.4233,-1.426,-1.4291,-1.4323,-1.4345,-1.4383,-1.443,-1.4438,-1.4487,-1.4522,-1.4581,-1.4604,-1.4643,-1.4635,-1.4649,-1.4653,-1.4656,-1.4658,-1.4574,-1.4651,-1.465,-1.465,-1.465,-1.465,0,-1.4192,-1.4216,-1.4254,-1.4301,-1.4334,-1.4333,-1.437,-1.4398,-1.4441,-1.4474,-1.451,-1.4562,-1.4605,-1.4635,-1.4679,-1.4704,-1.4706,-1.4715,-1.4713,-1.4718,-1.4662,-1.4649,-1.4712,-1.4712,-1.4712,-1.4712,-1.4712,-1.4712,-1.4231,-1.4283,-1.4297,-1.4363,-1.4386,-1.4434,-1.4455,-1.4484,-1.451,-1.4569,-1.4605,-1.4624,-1.4656,-1.4702,-1.4742,-1.4749,-1.4765,-1.4775,-1.4782,-1.4729,-1.4722,-1.4716,-1.4704,-1.4778,-1.4778,-1.4835,-1.4836,-1.4836]}]]